Location: Noordwijk
(52.2400°N, 4.4500°E)
Time: 10:38:47
(UTC+00:00)

AO-85 - Visible Passes

Search period start: 30 November 2022 00:00
Search period end: 10 December 2022 00:00
Orbit: 513 x 757 km, 64.8° (Epoch: 24 November)

Date Brightness Start Highest point End Pass type
(mag) Time Alt. Az. Time Alt. Az. Time Alt. Az.
30 Nov ? 17:42:42 10° W 17:46:53 34° NW 17:48:55 22° NNE visible
30 Nov ? 19:25:30 10° NW 19:26:23 13° NW 19:26:23 13° NW visible
01 Dec ? 16:24:09 10° SW 16:28:50 80° NW 16:33:10 10° NE visible
01 Dec ? 18:06:01 10° W 18:09:38 23° NNW 18:10:46 21° N visible
02 Dec ? 16:46:54 10° WSW 16:51:20 45° NW 16:55:08 12° NE visible
02 Dec ? 18:29:28 10° WNW 18:32:31 18° NNW 18:32:35 18° NNW visible
03 Dec ? 17:10:02 10° W 17:14:01 29° NNW 17:16:56 14° NNE visible
03 Dec ? 18:52:53 10° NW 18:54:23 14° NNW 18:54:23 14° NNW visible
04 Dec ? 17:33:25 10° WNW 17:36:48 21° NNW 17:38:42 16° NNE visible
04 Dec ? 19:16:00 10° NNW 19:16:10 10° NNW 19:16:10 10° NNW visible
05 Dec ? 16:14:09 10° WSW 16:18:25 37° NW 16:22:24 10° NNE visible
05 Dec ? 17:56:53 10° NW 17:59:42 17° NNW 18:00:29 16° N visible
06 Dec ? 16:37:23 10° W 16:41:07 25° NNW 16:44:40 10° NNE visible
06 Dec ? 18:20:12 10° NW 18:22:14 15° N 18:22:14 15° N visible
07 Dec ? 17:00:49 10° WNW 17:03:57 19° NNW 17:06:32 12° NNE visible
07 Dec ? 18:43:10 10° NNW 18:44:00 13° NNW 18:44:00 13° NNW visible
08 Dec ? 17:24:15 10° NW 17:26:54 16° N 17:28:18 14° NNE visible
09 Dec ? 17:47:27 10° NW 17:49:52 15° N 17:50:03 15° N visible
